Wind_Speed
21 20 20 20 20 20 19 19 19 19 18 17 17 16 15 15 14 14 13 13 13 12 11 11 11 11 11 11 11 10 11 12 12 12 12 11 9 10 10 11 11 10 10 10 10 10 9 9 9 10 10 12
20 19 19 19 18 18 17 17 17 17 17 16 16 16 16 16 15 15 14 14 14 12 11 11 11 10 10 11 11 11 11 12 12 12 10 9 7 7 8 9 10 9 8 9 9 9 8 8 8 8 9 10
20 19 18 17 17 16 16 16 16 16 15 15 14 14 14 14 14 14 13 13 13 13 12 12 11 10 9 9 10 11 11 11 12 10 8 7 6 7 7 7 8 7 7 8 8 8 8 7 7 7 8 9
21 20 18 17 16 15 15 15 15 14 13 13 13 12 12 12 12 12 12 13 12 12 11 10 11 10 9 7 8 9 10 10 10 8 6 6 5 6 6 6 6 6 7 7 7 7 7 7 6 7 7 8
22 21 19 18 17 16 15 15 14 14 13 13 12 12 11 11 11 12 12 12 11 11 10 9 10 10 8 6 6 6 7 8 8 5 4 5 5 6 6 6 6 6 7 7 7 7 7 6 6 7 7 8
22 21 19 18 18 17 16 15 14 14 13 12 12 12 11 11 11 12 12 11 11 10 9 9 8 7 6 4 4 4 4 5 6 5 4 5 5 6 6 6 7 7 7 7 7 7 7 6 7 7 7 7
22 21 20 19 19 18 17 15 14 14 13 12 12 12 11 12 12 12 12 11 11 9 9 9 7 5 4 3 3 3 3 4 5 4 4 5 5 6 6 6 7 7 8 8 7 7 7 7 7 7 7 7
22 22 21 21 20 18 17 16 15 14 13 12 13 12 11 11 12 12 12 11 10 9 8 7 6 4 2 2 2 2 3 4 4 4 4 5 5 5 6 6 6 7 8 8 8 7 7 7 7 7 7 8
23 23 23 22 20 19 18 17 16 14 13 13 13 12 12 11 12 12 12 11 9 9 8 7 5 3 1 1 1 2 3 4 5 5 4 4 5 5 6 6 6 7 7 8 8 7 8 7 7 7 7 8
24 24 24 23 22 21 20 18 17 15 14 14 13 13 12 12 13 13 12 11 9 9 8 7 5 3 2 2 2 3 4 5 5 5 5 5 5 5 5 6 6 6 7 7 7 7 7 7 7 7 6 7
26 25 25 24 24 23 21 20 18 17 16 15 14 14 13 12 13 13 13 11 10 9 8 7 5 4 3 3 3 4 4 5 5 5 5 5 5 5 5 5 5 6 6 7 7 7 7 7 7 7 6 6
26 26 25 25 25 24 23 22 20 18 17 16 16 15 14 13 13 14 14 13 11 10 9 8 6 5 4 4 5 5 5 5 6 5 5 5 5 5 5 5 5 5 5 6 7 7 7 6 6 6 6 6
27 27 27 27 26 25 24 23 21 20 19 18 18 17 16 15 14 15 15 14 12 12 11 9 7 6 6 5 6 6 6 6 6 6 6 6 6 6 5 5 5 4 5 6 6 6 6 6 6 6 6 6
29 29 29 29 27 26 25 24 22 22 21 20 19 18 17 16 16 16 16 15 14 13 12 10 9 8 7 7 7 7 7 7 7 7 7 6 6 6 6 5 5 4 4 5 5 5 5 5 5 5 5 6
31 31 30 29 28 27 27 25 24 24 23 22 21 19 18 18 17 16 16 16 15 14 14 12 10 9 9 9 9 9 9 9 8 8 8 7 7 6 6 6 5 4 4 4 4 4 4 4 4 4 5 5
32 32 31 30 29 29 28 27 26 26 24 23 22 20 20 19 18 18 18 17 16 16 15 13 12 11 11 11 11 11 10 10 10 10 9 8 8 7 7 6 6 5 5 4 4 3 3 3 3 4 4 5
33 33 32 31 30 30 29 28 28 27 26 24 23 22 22 21 20 20 19 19 18 17 16 15 14 13 12 12 12 12 12 11 11 11 10 10 9 8 7 6 6 5 5 5 4 3 3 3 4 4 4 5
34 34 33 32 31 31 30 29 29 28 27 26 25 24 24 23 22 21 21 20 19 18 17 16 15 15 13 13 13 13 13 12 12 12 11 10 9 8 7 7 6 6 5 5 3 3 3 3 4 4 4 5
36 36 35 34 33 32 32 31 31 30 29 28 27 27 26 25 24 23 23 22 21 20 19 18 17 16 15 14 14 14 14 13 13 12 11 11 10 9 8 8 7 6 6 5 4 3 3 3 4 4 4 6
37 36 36 35 34 34 33 33 33 32 31 30 29 29 28 27 26 25 24 23 22 22 21 21 19 18 17 17 16 16 16 15 14 13 13 12 11 10 10 9 8 7 6 5 4 3 4 4 4 4 4 6
38 38 37 37 36 35 35 35 34 34 33 32 32 32 30 29 28 27 26 25 24 24 24 23 21 19 18 18 18 18 18 16 15 15 14 13 13 12 11 10 9 8 7 6 5 4 4 4 3 4 5 7
39 39 38 37 37 37 37 36 36 35 35 35 35 34 32 31 30 29 28 27 26 26 26 25 23 21 20 20 20 19 19 18 17 17 16 15 14 13 11 10 9 8 7 6 5 4 4 4 3 4 6 7
39 38 38 38 37 37 38 38 38 38 38 38 37 36 35 33 32 31 30 29 28 28 28 27 25 23 22 22 22 21 21 20 20 19 18 17 15 14 13 11 10 9 9 7 6 5 4 4 4 5 6 8
39 38 38 38 38 39 40 40 40 40 40 39 39 38 36 35 34 33 31 30 30 30 30 29 27 25 24 25 25 24 25 24 23 22 21 19 18 16 15 14 13 12 10 8 6 5 4 4 5 6 6 8
41 40 39 38 40 42 42 41 41 40 41 40 40 39 38 37 36 35 33 33 32 32 32 31 30 28 28 28 28 27 26 25 24 23 22 20 19 18 18 17 15 14 11 8 6 5 4 4 5 7 7 9
43 44 42 41 43 43 42 41 42 42 43 42 41 40 40 39 38 37 36 35 34 34 34 34 33 32 31 30 30 29 27 26 25 25 24 23 22 21 20 18 16 17 14 9 8 5 3 2 4 7 8 9
44 45 45 43 42 41 40 40 42 43 42 42 42 42 41 41 41 40 39 38 37 36 37 36 36 35 33 33 32 31 30 29 29 28 28 26 25 24 22 19 18 20 16 12 11 6 2 1 2 4 6 7
45 43 42 41 38 37 37 37 38 39 39 41 42 42 43 44 44 43 42 41 39 39 39 39 38 37 36 35 35 34 34 33 33 32 31 30 28 27 26 23 22 22 20 17 13 6 2 1 2 2 4 6
43 40 38 37 33 30 30 31 31 34 38 40 42 44 46 46 46 45 44 43 42 41 40 41 40 40 39 38 37 37 37 37 36 35 35 34 32 31 30 27 24 24 23 23 18 9 4 3 1 3 4 5
42 40 38 37 34 31 30 30 32 37 41 42 43 46 46 46 45 45 45 44 44 43 42 42 42 41 41 40 40 39 39 39 38 38 38 37 35 34 32 28 25 26 26 25 23 19 12 7 4 4 6 5
42 41 40 39 39 38 36 35 37 41 42 41 42 43 43 43 44 45 46 45 45 45 44 44 43 43 43 43 42 41 41 41 41 41 40 39 37 35 33 30 28 28 28 26 26 25 21 16 11 7 8 6
Wind_Direction
145 144 142 141 140 141 141 140 138 137 138 137 133 133 132 131 129 125 123 120 118 112 109 107 103 99 93 88 84 80 74 71 73 73 74 77 76 75 73 69 68 69 70 73 73 72 73 73 72 72 75 75
150 148 148 148 148 148 148 147 146 146 148 148 145 145 144 141 137 133 131 131 128 122 117 111 101 95 94 90 84 81 77 76 76 76 83 87 86 86 86 83 77 72 72 77 79 79 78 75 73 70 74 74
154 154 155 154 154 153 152 152 153 153 154 156 155 155 154 153 151 149 148 147 143 138 133 125 110 97 96 98 94 88 79 78 79 79 87 91 90 94 99 99 92 84 80 81 82 86 87 84 80 73 74 75
159 160 160 158 158 157 156 157 158 159 160 160 160 160 158 158 158 157 156 153 150 146 142 137 124 109 105 109 108 101 91 86 86 86 88 88 89 95 101 103 101 96 88 85 81 85 88 89 89 80 77 76
163 163 163 162 163 162 162 162 163 164 165 165 164 165 163 162 162 160 159 156 153 149 145 143 136 126 119 116 110 110 111 104 102 101 96 92 94 97 100 101 100 100 95 89 81 81 82 84 85 82 81 79
167 168 168 168 168 167 168 168 169 170 170 171 169 171 171 169 168 166 164 162 158 155 152 149 144 132 122 115 105 116 127 123 122 121 113 107 107 105 103 103 104 104 102 93 85 83 81 78 77 78 81 80
173 174 175 174 173 172 172 173 174 175 176 176 175 177 179 175 174 172 170 168 167 166 164 159 151 135 119 110 108 128 135 138 140 134 128 121 118 115 109 104 102 104 103 96 90 87 83 78 76 76 78 79
178 178 180 179 177 177 177 177 179 181 182 181 180 182 183 182 179 179 176 174 175 175 175 170 159 147 128 120 126 142 143 148 150 142 139 128 121 118 113 107 102 102 100 96 93 89 85 79 79 77 77 78
183 183 182 181 181 182 181 182 184 187 189 186 186 186 186 186 184 186 186 182 183 182 182 181 175 172 167 166 175 162 153 155 154 149 146 138 129 119 113 110 104 105 102 97 93 90 88 85 83 78 76 76
189 187 186 185 185 186 185 187 188 190 193 191 190 190 191 191 190 191 192 192 192 191 190 191 192 200 206 204 199 181 167 162 159 155 150 145 136 125 119 113 108 109 106 102 96 92 91 91 92 86 83 79
194 192 191 190 190 190 189 189 192 195 197 195 195 197 199 199 199 197 197 199 199 199 199 200 207 218 225 212 204 197 179 172 168 161 155 149 143 134 127 119 114 112 109 106 100 96 94 94 96 96 96 92
198 196 194 194 194 194 194 195 198 201 200 198 199 202 205 206 206 205 203 203 203 205 206 210 218 226 233 219 209 206 188 181 176 170 166 160 152 146 141 132 125 118 112 107 103 101 99 99 100 100 104 103
201 199 197 198 198 197 199 201 203 205 203 201 202 204 207 209 211 210 209 208 207 209 211 217 224 228 233 224 212 211 200 190 186 182 176 171 166 161 158 149 139 131 120 109 107 107 103 105 105 104 107 108
204 201 200 201 201 201 204 205 206 207 206 205 205 206 209 213 215 216 215 215 214 213 216 221 227 231 232 225 217 215 208 199 194 192 187 184 181 175 170 164 156 146 132 121 117 114 110 111 110 112 113 113
206 204 204 205 205 206 208 207 207 208 208 207 208 210 212 215 217 219 218 219 219 218 219 223 228 234 232 225 220 216 213 207 201 199 197 194 192 189 182 176 171 163 151 142 135 127 121 117 116 123 125 125
208 208 208 209 209 210 212 210 209 210 209 209 210 212 214 217 218 219 221 221 222 221 222 226 229 233 231 223 218 216 215 210 205 202 202 199 197 196 190 185 181 174 167 163 157 147 136 130 136 143 144 139
211 211 211 212 213 214 215 213 213 214 213 213 213 215 216 218 219 221 223 224 225 225 225 228 230 232 230 221 216 216 216 211 207 204 202 201 199 197 193 191 187 181 176 174 168 158 148 144 155 164 167 158
213 213 212 214 215 216 217 216 217 218 218 217 216 217 219 219 220 222 225 225 225 226 226 228 230 232 231 223 217 217 217 213 209 206 204 202 201 197 196 195 193 188 183 181 174 162 157 154 164 175 178 172
214 214 214 215 216 216 217 218 219 220 220 220 218 219 220 221 222 223 224 225 225 226 227 229 231 232 230 224 219 218 218 215 211 209 206 204 203 199 197 200 197 191 188 187 183 175 169 165 175 184 184 180
215 215 216 217 217 217 218 219 220 222 222 222 221 221 221 222 223 223 224 224 225 227 228 229 231 231 227 223 220 218 218 216 213 210 206 205 205 202 201 201 198 193 193 191 188 185 177 174 185 192 186 181
215 216 217 218 218 218 219 220 221 223 224 224 223 222 222 222 223 224 224 225 226 228 229 230 230 228 224 221 220 218 218 217 213 211 209 205 204 205 205 203 199 195 193 194 194 187 178 182 201 206 193 183
216 217 218 219 219 219 220 222 224 224 225 225 225 225 224 223 224 225 225 226 227 228 229 230 229 227 223 221 219 217 219 217 211 210 211 207 205 205 204 204 202 198 196 196 195 185 179 192 216 217 207 191
216 217 218 219 218 219 221 223 224 224 225 226 226 226 226 225 225 226 226 226 227 227 228 228 226 225 223 222 220 217 217 215 211 210 209 207 206 203 201 203 201 197 196 193 191 187 184 202 218 217 213 200
214 214 216 216 215 217 220 222 222 223 226 227 227 228 227 226 226 227 227 227 227 227 227 227 225 224 222 222 220 217 217 215 212 211 209 207 204 202 198 198 198 194 192 190 187 186 191 209 214 209 210 203
211 211 211 212 213 217 219 220 220 222 224 226 228 229 229 228 228 229 229 227 227 227 227 227 225 223 221 220 220 220 220 218 215 212 211 208 203 203 200 198 196 190 185 187 191 192 196 206 208 206 212 213
212 212 213 213 215 218 218 219 220 222 224 226 228 229 230 230 230 230 229 228 228 228 227 226 224 223 221 221 220 220 221 219 216 212 210 207 204 203 204 204 197 190 188 188 191 183 158 175 205 211 219 224
214 216 217 218 219 219 218 220 222 224 226 227 228 229 230 232 232 231 230 229 229 228 228 227 225 224 223 222 221 220 218 217 215 212 209 207 206 203 203 208 203 198 195 186 174 156 139 172 175 219 228 218
217 219 218 219 221 221 221 223 224 224 226 227 227 229 231 232 232 231 230 229 229 229 229 228 226 225 224 223 222 221 219 217 214 212 209 207 207 204 202 205 205 204 202 193 180 150 122 131 107 235 226 192
217 217 217 217 219 221 222 223 223 221 223 225 225 228 230 231 231 230 230 230 229 229 229 229 228 227 226 224 223 222 221 220 217 213 212 210 208 207 206 205 203 204 205 203 200 187 153 119 129 236 187 166
217 216 215 214 213 214 215 217 219 220 222 222 223 226 229 230 230 230 231 230 230 230 230 230 229 228 227 226 224 223 223 222 220 217 215 213 211 211 211 209 206 205 206 208 209 209 207 204 215 200 158 147
217 216 215 215 215 216 216 218 222 225 226 225 226 227 228 229 231 231 231 231 231 230 230 230 230 229 228 227 226 225 224 223 222 221 219 217 216 215 213 211 210 209 206 207 212 215 217 222 226 208 176 175
Height
869 869 870 871 871 872 872 873 874 875 876 878 878 879 880 880 880 881 881 881 882 882 882 882 882 882 882 882 881 881 881 880 880 880 879 879 879 878 878 878 877 877 876 876 876 876 875 875 875 875 874 874
868 868 869 870 870 871 871 872 873 874 875 876 877 878 878 879 879 880 880 880 881 881 882 882 882 882 881 881 881 881 881 880 880 880 879 879 878 878 878 878 877 877 877 876 876 876 875 875 875 875 875 875
867 868 868 869 870 870 871 871 873 873 874 875 876 877 878 878 878 879 879 879 880 880 880 880 880 881 881 880 880 880 880 880 880 879 879 878 878 878 878 877 877 877 876 876 876 876 876 875 875 875 875 875
866 867 867 868 869 869 870 871 872 873 874 875 876 876 877 878 878 878 878 879 879 879 879 879 880 880 880 880 880 880 880 880 880 879 878 878 878 878 878 877 877 877 877 876 876 876 876 876 876 875 875 875
865 866 866 867 868 869 870 870 871 872 873 874 875 876 876 877 877 877 878 878 878 879 879 879 879 879 879 879 879 879 879 879 879 879 878 878 878 878 878 878 877 877 877 877 876 876 876 876 876 876 875 875
864 865 865 866 867 868 869 870 871 871 872 873 874 875 875 876 876 877 877 877 878 878 878 878 879 879 879 879 879 879 879 878 878 878 878 878 878 878 877 877 877 877 877 877 877 877 876 876 876 876 876 876
863 863 864 865 866 867 868 869 870 871 872 873 874 874 875 875 875 876 876 877 877 877 877 878 878 878 878 878 878 878 878 878 878 877 877 877 877 877 877 877 877 877 877 877 877 877 877 876 876 876 876 876
861 862 863 864 865 866 867 868 869 870 871 872 873 873 874 874 875 875 875 876 876 876 877 877 877 877 878 878 878 878 877 877 877 877 877 877 877 877 877 877 877 877 877 877 877 877 877 876 876 876 876 876
860 861 862 863 864 865 866 867 868 868 869 871 871 872 873 873 874 874 874 875 875 876 876 876 876 877 877 877 877 877 877 877 877 877 877 876 876 876 876 876 877 877 876 876 876 876 876 876 876 876 876 876
859 860 861 862 863 864 865 865 866 867 868 869 870 871 871 872 872 873 873 874 874 875 875 875 875 876 876 876 876 876 876 876 876 876 876 876 876 876 876 876 876 876 876 876 876 876 876 876 876 876 876 876
857 858 859 860 862 862 863 864 865 866 867 868 868 869 870 871 871 872 872 873 873 874 874 874 874 875 875 875 875 875 875 875 875 875 875 875 875 875 875 875 875 876 876 876 876 876 876 876 876 876 876 876
856 857 858 859 860 861 862 862 863 864 865 866 867 868 868 869 870 871 871 872 872 872 873 873 873 874 874 874 874 874 874 874 874 875 875 875 875 875 875 875 875 875 875 875 875 875 875 875 875 875 875 875
854 855 857 857 858 860 860 861 862 863 864 865 866 866 867 868 869 869 870 870 871 871 872 872 872 873 873 873 873 873 873 874 874 874 874 874 874 874 874 875 874 874 875 875 875 875 875 875 875 875 874 875
852 853 854 855 856 858 859 860 861 862 862 863 864 865 865 866 867 868 868 869 870 870 870 871 871 871 872 872 872 872 872 873 873 873 873 873 874 874 874 874 874 874 874 874 874 874 874 874 874 874 874 874
850 851 852 853 855 856 857 858 859 860 861 862 862 863 864 864 865 866 867 868 868 869 869 870 870 870 871 871 871 871 872 872 872 872 873 873 873 873 873 873 873 873 874 874 874 874 874 874 874 874 874 874
847 849 850 851 852 853 854 856 857 858 859 860 861 861 862 863 863 864 865 866 867 867 868 868 869 869 870 870 870 870 871 871 871 872 872 872 872 872 873 873 873 873 873 873 873 873 873 873 873 873 873 873
845 846 848 849 850 851 852 854 855 856 857 858 859 859 860 861 862 862 863 864 865 866 866 867 867 868 868 869 869 869 869 870 870 871 871 871 871 871 872 872 872 872 872 872 872 872 873 873 873 873 873 873
842 844 845 846 848 849 850 851 852 854 855 856 857 858 858 859 860 860 861 862 863 864 864 865 866 866 867 867 868 868 868 869 869 869 869 870 870 870 870 871 871 871 871 871 871 872 872 872 872 872 872 872
839 841 843 844 845 846 847 849 850 851 852 854 855 856 856 857 858 858 859 860 861 862 862 863 864 865 865 866 866 867 867 867 868 868 868 868 868 869 869 869 870 870 870 870 870 870 871 871 871 871 871 871
837 839 840 841 842 844 845 846 847 848 850 851 852 853 854 854 855 856 857 858 859 860 860 861 862 863 864 864 865 865 865 866 866 867 867 867 867 868 868 868 868 869 869 869 869 869 869 870 870 870 870 870
835 837 838 839 840 841 842 843 844 846 847 848 849 850 851 852 853 854 854 855 857 857 858 859 860 861 862 863 863 864 864 864 865 865 866 866 866 866 867 867 867 867 867 868 868 868 868 869 869 869 869 869
832 834 836 837 838 839 840 841 841 843 844 844 845 846 848 849 850 851 852 853 854 855 856 857 858 859 860 861 861 862 862 863 864 864 864 865 865 865 866 866 866 866 866 866 867 867 867 867 868 868 868 868
830 832 834 835 836 837 837 838 839 840 840 841 842 843 845 846 847 848 850 851 851 853 853 854 855 857 858 858 859 860 860 861 861 862 863 863 864 864 864 865 865 865 865 865 865 866 866 866 866 866 866 867
827 829 831 832 833 833 833 834 835 836 837 838 839 840 842 843 844 846 847 848 849 850 851 851 853 854 855 856 857 857 857 858 859 860 860 861 862 862 863 863 863 864 864 864 864 864 865 865 865 865 865 866
822 824 826 827 828 827 828 830 832 833 834 835 836 837 839 840 841 843 844 845 846 847 847 848 850 851 852 853 854 854 855 856 857 858 859 859 860 861 861 861 861 862 863 863 863 863 863 864 864 864 864 865
817 818 819 820 821 822 824 826 827 828 829 831 833 834 835 836 838 839 840 841 842 843 844 845 846 847 849 850 851 852 853 854 855 856 857 857 858 858 859 859 860 860 860 861 861 862 863 863 863 863 863 863
813 814 816 817 818 820 822 823 824 825 827 828 830 831 832 833 834 835 836 837 838 839 840 841 842 844 845 846 847 849 850 851 852 853 854 854 855 856 857 858 858 858 858 858 859 861 861 862 863 862 862 862
810 812 814 816 817 819 820 821 823 824 825 826 826 827 828 828 828 830 831 833 835 836 837 838 839 840 842 843 844 845 846 847 848 849 850 851 852 853 853 854 855 855 856 856 856 858 860 862 863 860 859 860
808 811 813 815 817 818 819 820 821 821 821 821 822 822 822 822 824 826 828 830 831 832 834 834 836 837 838 839 841 841 842 843 844 846 846 847 848 849 849 850 851 852 853 853 853 854 856 858 858 857 857 859
805 807 808 810 811 813 814 815 814 813 813 814 815 816 817 819 821 823 824 826 828 829 830 831 832 834 835 836 837 837 839 840 841 842 842 843 844 845 846 848 849 849 849 851 851 851 851 852 852 853 856 858
801 802 804 805 805 806 807 807 806 807 808 811 812 813 815 817 818 820 821 822 824 825 827 828 829 830 831 832 833 834 835 836 837 837 839 840 841 841 843 844 844 844 846 848 848 848 849 849 850 851 853 854